FENGYUN 1C DEB, 31150

Orbit data source: Space-Track

FENGYUN 1C DEB, 31150 is space debris in SSO originally from a launch on Mon, 10 May 1999 UTC launched from the Taiyaun Space Center, China (TSC). Fengyun 1C debris stems from the Chinese weather satellite Fengyun-1C, which was intentionally destroyed by a Chinese anti-satellite missile in 2007. This event dramatically increased the amount of space debris, with thousands of trackable fragments posing hazards to satellites and human spaceflight. The Fengyun 1C debris cloud has become a focal point in discussions about space sustainability and the need for international regulations to prevent the creation of new debris.

Loading next visibility...
Identifier
31150, 1999-025BHC
Orbit
SSO
Country
Flag of CNCN / PRC
Related business
Manufacturer
Unknown
Mission
Spacecraft
Bus & Motor
Unknown
Mass
Unknown
Launch date (UTC)
1999-05-10 (27 years ago)
Launch vehicle
Unknown
Launch site
Taiyaun Space Center, China (TSC)
Object type
Payload
Rocket body
Debris
Shape & HBR
Unknown shape, 0.1 m
Radar Cross Section
Medium (>0.1 m² and <1 m²)

Expand to show TLE details & history
Last TLE update: 3 days ago

TLE from 3 days ago
0 FENGYUN 1C DEB
1 31150U 99025BHC 26167.30707124  .00000181  00000-0  12018-3 0  9996
2 31150  98.6817 175.3835 0014864 359.5669  12.0461 14.12843512989178
Epoch: 2026-06-16T07:22Z
TLE epoch observation values (Epoch: 2026-06-16T07:22:10.955Z)
Latitude
11.46786°
Longitude
158.49112°
Altitude
841.296 km
Speed
7.438 km/s
True Right ascension
11h 34m 28s
True Declination
11° 24' 07"
Sunlit
Object was in daylight at epoch
Visualization orbit readout
Latitude
Unknown
Longitude
Unknown
Altitude
Unknown
Speed
Unknown
Apparent Right ascension
Unknown
Apparent Declination
Unknown
Sunlit
N/A
Visualization observer readout
Local Sidereal Time
07:06:59
Azimuth
Unknown
Elevation
Unknown
Doppler factor
Unknown
Orbital elements
Apogee altitude
857.564 km
Perigee altitude
836.085 km
Semi-major axis
7,224.961 km
Eccentricity
0.00149
Inclination
98.6817°
RAAN
175.3835°
Arg. of periapsis
359.5669°
True anomaly
12.08171°
Mean anomaly
12.0461°
Eccentric anomaly
12.0639°
Mean motion
3.53419 °/min
Orbital period
101.86 mins
BSTAR
0.00012018
Loading maneuver chart data...
Computing Atmospheric mass density...
Loading historical data...
Loading historical data...
Loading historical data...
Loading historical data...
Loading historical data...
Loading historical data...
Loading historical data...

Documentation

Showing up to 5 results
|